Weather History for Birmingham, United Kingdom

Change the Weather History Date:

Wednesday, October 3, 2012

  Actual Average Record
Temperature  
Mean Temperature 50 °F -  
Max Temperature 57 °F 56 °F 77 °F (2011)
Min Temperature 44 °F 42 °F 37 °F (1998)
Degree Days  
Heating Degree Days 14    
Moisture  
Dew Point 44 °F    
Average Humidity 80    
Maximum Humidity 94    
Minimum Humidity 55    
Precipitation  
Precipitation 0.00 in 0.07 in - ()
Sea Level Pressure  
Sea Level Pressure 29.61 in    
Wind  
Wind Speed 9 mph ()    
Max Wind Speed 17 mph    
Max Gust Speed 30 mph    
Visibility 6.2 miles    
Events Rain    
Averages and records for this station are not official NWS values.
T = Trace of Precipitation, MM = Missing Value Source: Averaged Metar Reports

Daily Weather History Graph

Daily Weather History Graph

Search for Another Location

Airport:

Trip Planner

Search our weather history database for the weather conditions in past years. The results will help you decide how hot, cold, wet, or windy it might be!

Date:

Astronomy

Oct. 03, 2012 Rise Set
Actual Time 7:12 AM BST 6:38 PM BST
Civil Twilight 6:38 AM BST 7:12 PM BST
Nautical Twilight 5:58 AM BST 7:52 PM BST
Astronomical Twilight 5:17 AM BST 8:32 PM BST
Moon 7:49 PM BST (10/3) 10:52 AM BST (10/3)
Length of Visible Light 12h 34m
Length of Day
11h 26m
Waning Gibbous, 90% of the Moon is Illuminated
Oct 3
Waning Gibbous
Oct 8
Last Quarter
Oct 15
New
Oct 22
First Quarter
Oct 29
Full

Hourly Weather History & Observations

Time (BST) Temp. Windchill Dew Point Humidity Pressure Visibility Wind Dir Wind Speed Gust Speed Precip Events Conditions
12:20 AM 51.8 °F - 50.0 °F 94% 29.59 in 6.2 mi South 11.5 mph - N/A   Scattered Clouds
12:50 AM 51.8 °F - 48.2 °F 88% 29.59 in 6.2 mi South 9.2 mph - N/A   Partly Cloudy
1:20 AM 50.0 °F - 48.2 °F 94% 29.59 in - South 9.2 mph - N/A   Clear
1:50 AM 50.0 °F - 46.4 °F 87% 29.59 in 6.2 mi South 9.2 mph - N/A   Partly Cloudy
2:20 AM 50.0 °F - 46.4 °F 87% 29.59 in 6.2 mi SSW 10.4 mph - N/A   Partly Cloudy
2:50 AM 50.0 °F - 46.4 °F 87% 29.59 in 6.2 mi SSW 10.4 mph - N/A   Unknown
3:20 AM 48.2 °F - 44.6 °F 87% 29.59 in 6.2 mi SSW 9.2 mph - N/A   Partly Cloudy
3:50 AM 48.2 °F - 44.6 °F 87% 29.59 in - SW 8.1 mph - N/A   Clear
4:20 AM 48.2 °F - 44.6 °F 87% 29.59 in - South 10.4 mph - N/A   Clear
4:50 AM 48.2 °F - 44.6 °F 87% 29.59 in - SSW 9.2 mph - N/A   Clear
5:20 AM 46.4 °F 43.5 °F 42.8 °F 87% 29.59 in - SSW 5.8 mph - N/A   Clear
5:50 AM 46.4 °F 42.9 °F 42.8 °F 87% 29.59 in - SSW 6.9 mph - N/A   Clear
6:20 AM 46.4 °F 42.9 °F 44.6 °F 93% 29.59 in - SSW 6.9 mph - N/A   Clear
6:50 AM 48.2 °F - 44.6 °F 87% 29.59 in - SSW 9.2 mph 21.9 mph N/A   Clear
7:20 AM 46.4 °F 42.9 °F 44.6 °F 93% 29.59 in - SSW 6.9 mph - N/A   Clear
7:50 AM 48.2 °F - 44.6 °F 87% 29.59 in - SSW 5.8 mph - N/A   Clear
8:20 AM 48.2 °F - 44.6 °F 87% 29.59 in - SSW 6.9 mph - N/A   Clear
8:50 AM 48.2 °F - 44.6 °F 87% 29.62 in - SSW 9.2 mph - N/A   Clear
9:20 AM 50.0 °F - 44.6 °F 82% 29.62 in - SW 10.4 mph - N/A   Clear
9:50 AM 51.8 °F - 44.6 °F 76% 29.62 in - SW 11.5 mph - N/A   Clear
10:20 AM 51.8 °F - 42.8 °F 71% 29.62 in - WSW 12.7 mph - N/A   Clear
10:50 AM 53.6 °F - 42.8 °F 67% 29.62 in 6.2 mi SW 12.7 mph - N/A   Scattered Clouds
11:20 AM 53.6 °F - 42.8 °F 67% 29.62 in 6.2 mi WSW 13.8 mph 26.5 mph N/A   Scattered Clouds
11:50 AM 53.6 °F - 42.8 °F 67% 29.62 in 6.2 mi SW 11.5 mph - N/A   Mostly Cloudy
12:20 PM 55.4 °F - 42.8 °F 63% 29.65 in 6.2 mi SW 16.1 mph - N/A   Mostly Cloudy
12:50 PM 55.4 °F - 41.0 °F 58% 29.65 in 6.2 mi SW 15.0 mph - N/A   Mostly Cloudy
1:20 PM 55.4 °F - 41.0 °F 58% 29.62 in 6.2 mi SW 15.0 mph - N/A   Mostly Cloudy
1:50 PM 57.2 °F - 41.0 °F 55% 29.62 in 6.2 mi SW 17.3 mph - N/A   Scattered Clouds
2:20 PM 55.4 °F - 41.0 °F 58% 29.62 in 6.2 mi WSW 13.8 mph - N/A   Scattered Clouds
2:50 PM 57.2 °F - 42.8 °F 59% 29.62 in 6.2 mi WSW 11.5 mph 28.8 mph N/A   Scattered Clouds
3:20 PM 57.2 °F - 41.0 °F 55% 29.62 in 6.2 mi WSW 17.3 mph 29.9 mph N/A Rain Rain Showers
3:50 PM 51.8 °F - 42.8 °F 71% 29.62 in 6.2 mi West 9.2 mph - N/A   Scattered Clouds
4:20 PM 48.2 °F - 44.6 °F 87% 29.62 in 6.2 mi WSW 8.1 mph - N/A Rain Light Rain Showers
4:50 PM 50.0 °F - 46.4 °F 87% 29.62 in 6.2 mi SW 5.8 mph - N/A   Scattered Clouds
5:20 PM 51.8 °F - 46.4 °F 82% 29.59 in 6.2 mi SSW 6.9 mph - N/A   Scattered Clouds
5:50 PM 51.8 °F - 44.6 °F 76% 29.59 in 6.2 mi SSW 10.4 mph - N/A   Partly Cloudy
6:20 PM 50.0 °F - 42.8 °F 76% 29.62 in 6.2 mi SSW 9.2 mph - N/A   Partly Cloudy
6:50 PM 50.0 °F - 42.8 °F 76% 29.62 in 6.2 mi SSW 9.2 mph - N/A   Partly Cloudy
7:20 PM 50.0 °F - 42.8 °F 76% 29.62 in 6.2 mi SW 8.1 mph - N/A   Partly Cloudy
7:50 PM 48.2 °F - 42.8 °F 82% 29.62 in - South 8.1 mph - N/A   Clear
8:20 PM 46.4 °F 42.9 °F 42.8 °F 87% 29.62 in - South 6.9 mph - N/A   Clear
8:50 PM 46.4 °F 42.4 °F 42.8 °F 87% 29.62 in - South 8.1 mph - N/A   Clear
9:20 PM 46.4 °F 42.4 °F 42.8 °F 87% 29.62 in - South 8.1 mph - N/A   Clear
9:50 PM 44.6 °F 40.7 °F 42.8 °F 93% 29.62 in - South 6.9 mph - N/A   Clear
10:20 PM 44.6 °F 41.4 °F 41.0 °F 87% 29.62 in - South 5.8 mph - N/A   Clear
10:50 PM 44.6 °F 41.4 °F 41.0 °F 87% 29.62 in - SSW 5.8 mph - N/A   Clear
11:20 PM 44.6 °F 40.7 °F 41.0 °F 87% 29.62 in - SSW 6.9 mph - N/A   Clear
11:50 PM 44.6 °F 39.7 °F 41.0 °F 87% 29.62 in - SSW 9.2 mph - N/A   Clear